Location: Ladrillo (historical)
(32.8195°N, 117.2231°W)
Time: 10:44:15
(UTC+00:00)

Vanguard 2 Rocket - All Passes

Search period start: 01 March 2021 00:00
Search period end: 11 March 2021 00:00
Orbit: 554 x 3325 km, 32.9° (Epoch: 28 February)

Date Brightness Start Highest point End Pass type
(mag) Time Alt. Az. Time Alt. Az. Time Alt. Az.
01 Mar - 10:11:17 10° S 10:15:08 19° SE 10:20:22 10° E visible
01 Mar - 12:20:53 10° WSW 12:27:29 69° SSE 12:39:32 10° E visible
01 Mar - 14:33:12 10° W 14:42:34 89° N 14:59:26 10° E daylight
01 Mar - 16:46:37 10° W 16:59:26 74° SSW 17:19:13 10° ESE daylight
01 Mar - 19:01:51 10° W 19:16:54 43° SSW 19:35:08 10° SSE daylight
01 Mar - 21:24:24 10° WSW 21:33:37 15° SW 21:42:55 10° SSW daylight
02 Mar - 11:22:13 10° SW 11:27:44 50° SSE 11:37:12 10° E visible
02 Mar - 13:33:55 10° W 13:41:45 89° S 13:56:20 10° E visible
02 Mar - 15:46:48 10° W 15:57:51 81° SSW 16:16:30 10° ESE daylight
02 Mar - 18:00:59 10° W 18:15:01 52° SSW 18:34:10 10° SE daylight
02 Mar - 20:19:23 10° W 20:32:05 23° SW 20:45:52 10° S daylight
03 Mar - 10:23:56 10° SSW 10:28:25 31° SE 10:35:12 10° E visible
03 Mar - 12:34:49 10° WSW 12:41:24 83° SSE 12:53:33 10° E visible
03 Mar - 14:47:17 10° W 14:56:38 87° S 15:13:28 10° ESE daylight
03 Mar - 17:00:43 10° W 17:13:16 62° SSW 17:32:26 10° SE daylight
03 Mar - 19:16:48 10° W 19:30:25 31° SW 19:46:42 10° SSE daylight
04 Mar - 09:26:26 10° S 09:29:23 16° SE 09:33:03 10° E visible
04 Mar - 11:35:57 10° WSW 11:41:29 68° SSE 11:51:17 10° E visible
04 Mar - 13:48:00 10° W 13:55:51 89° N 14:10:24 10° E visible
04 Mar - 16:00:52 10° W 16:11:47 71° SSW 16:30:05 10° ESE daylight
04 Mar - 18:15:29 10° W 18:28:42 40° SSW 18:46:21 10° SSE daylight
04 Mar - 20:37:37 10° WSW 20:45:38 14° SW 20:54:08 10° SSW daylight
05 Mar - 10:37:18 10° SW 10:41:59 47° SSE 10:49:29 10° E visible
05 Mar - 12:48:52 10° W 12:55:27 90° E 13:07:37 10° E visible
05 Mar - 15:01:22 10° W 15:10:40 79° SSW 15:27:19 10° ESE daylight
05 Mar - 17:14:58 10° W 17:27:04 49° SSW 17:45:08 10° SE daylight
05 Mar - 19:32:50 10° W 19:44:01 21° SW 19:57:01 10° S daylight
06 Mar - 09:39:00 10° SSW 09:42:48 28° SE 09:48:01 10° E visible
06 Mar - 11:49:54 10° WSW 11:55:26 83° S 12:05:19 10° E visible
06 Mar - 14:02:05 10° W 14:09:55 86° S 14:24:25 10° ESE daylight
06 Mar - 16:15:01 10° W 16:25:41 58° SSW 16:43:14 10° SE daylight
06 Mar - 18:30:35 10° W 18:42:24 29° SW 18:57:40 10° SSE daylight
07 Mar - 08:41:28 10° S 08:43:46 14° SE 08:46:21 10° ESE night (unlit)
07 Mar - 10:51:03 10° WSW 10:55:47 67° SSE 11:03:35 10° E visible
07 Mar - 13:02:57 10° W 13:09:33 89° N 13:21:42 10° E visible
07 Mar - 15:15:27 10° W 15:24:38 67° SSW 15:40:51 10° ESE daylight
07 Mar - 17:29:36 10° W 17:40:53 36° SSW 17:57:08 10° SSE daylight
07 Mar - 19:51:59 10° WSW 19:57:52 12° SW 20:04:12 10° SSW daylight
08 Mar - 09:52:21 10° SW 09:56:26 45° SSE 10:02:22 10° E visible
08 Mar - 12:03:57 10° W 12:09:30 89° NNE 12:19:23 10° E visible
08 Mar - 14:16:09 10° W 14:23:57 76° SSW 14:38:16 10° ESE daylight
08 Mar - 16:29:21 10° W 16:39:36 44° SSW 16:55:49 10° SE daylight
08 Mar - 18:46:57 10° WSW 18:56:16 19° SW 19:07:33 10° S daylight
09 Mar - 08:53:55 10° SSW 08:57:18 26° SSE 09:01:27 10° E night (unlit)
09 Mar - 11:05:01 10° WSW 11:09:46 83° S 11:17:39 10° E visible
09 Mar - 13:17:03 10° W 13:23:36 84° S 13:35:42 10° ESE visible
09 Mar - 15:29:38 10° W 15:38:35 53° SSW 15:53:57 10° SE daylight
09 Mar - 17:44:54 10° W 17:54:49 25° SSW 18:08:11 10° SSE daylight
10 Mar - 07:56:07 10° S 07:58:11 14° SSE 08:00:22 10° ESE night (unlit)
10 Mar - 10:06:07 10° WSW 10:10:17 66° SSE 10:16:29 10° E visible
10 Mar - 12:18:02 10° W 12:23:35 90° NNW 12:33:28 10° E visible
10 Mar - 14:30:16 10° W 14:37:56 62° SSW 14:51:45 10° ESE daylight
10 Mar - 16:44:07 10° W 16:53:34 32° SSW 17:07:39 10° SSE daylight
